Temperature
16 16 16 16 16 16 16 15 15 15 15 15 15 15 15 15 15 15 15 14 14 14 14 14 14 14 14 14 14 14 14 14 14 13 13 13 13 13
16 16 16 16 16 16 16 15 15 15 14 14 14 14 14 14 14 14 14 14 14 14 14 14 14 14 14 14 14 14 13 13 13 13 13 13 13 13
16 16 16 16 16 16 15 15 15 15 15 14 14 14 14 14 14 14 14 14 14 13 13 13 13 13 13 13 13 13 13 13 13 13 13 13 13 13
16 16 16 16 16 16 15 15 15 15 15 14 14 14 14 14 13 13 13 13 13 13 13 13 13 13 13 13 13 13 12 12 12 12 12 12 12 12
16 16 16 16 16 15 15 15 15 15 14 14 14 14 14 13 13 13 13 13 13 13 13 12 12 12 12 12 12 12 12 12 12 12 12 12 12 12
16 16 16 16 15 15 15 15 15 15 14 14 13 13 13 13 13 13 13 13 13 12 12 12 12 12 12 12 12 12 12 12 12 12 11 11 11 11
16 16 16 16 15 15 15 15 15 14 14 14 13 13 13 13 13 12 12 12 12 12 12 12 12 12 12 12 12 11 11 11 11 11 11 11 11 11
16 16 15 15 15 15 15 14 14 14 14 13 13 13 13 13 12 12 12 12 12 12 12 12 12 12 12 12 11 11 11 11 11 11 11 11 11 10
15 15 15 15 15 14 14 14 14 14 13 13 13 13 13 13 12 12 12 12 12 12 12 12 12 11 11 11 11 11 11 11 11 10 10 10 10 10
15 15 15 14 14 14 14 14 14 13 13 13 13 13 12 12 12 12 12 12 12 11 11 11 11 11 11 11 11 11 11 10 10 10 10 10 10 10
14 14 14 14 14 14 14 14 13 13 13 13 13 12 12 12 12 12 12 11 11 11 11 11 11 11 11 11 10 10 10 10 10 10 10 9 9 9
14 14 14 14 14 13 13 13 13 13 13 12 12 12 12 12 12 12 11 11 11 11 11 10 10 10 10 10 10 10 10 10 10 9 9 9 9 9
14 14 14 13 13 13 13 13 13 13 12 12 12 12 12 11 11 11 11 11 11 11 11 10 10 10 10 10 10 9 9 9 9 9 9 9 9 8
14 13 13 13 13 13 13 12 12 12 12 12 11 11 11 11 11 11 11 11 10 10 10 10 10 10 9 9 9 9 9 9 9 9 9 8 8 8
13 13 13 12 12 12 12 12 12 12 12 12 11 11 11 11 10 10 10 10 10 10 10 9 9 9 9 9 9 9 9 9 9 8 8 8 8 8
13 12 12 12 12 12 12 12 11 11 11 11 11 11 11 10 10 10 10 10 9 9 9 9 9 9 9 9 9 9 8 8 8 8 8 8 8 8
12 12 12 11 11 11 11 11 11 11 11 11 11 10 10 10 10 9 9 9 9 9 9 9 9 9 9 9 8 8 8 8 8 8 8 8 8 8
11 11 11 11 11 11 11 11 11 11 10 10 10 10 10 9 9 9 9 9 9 8 8 8 8 8 8 8 8 8 8 8 8 8 7 7 8 8
11 11 11 11 10 10 10 10 10 10 10 10 10 9 9 9 9 9 9 8 8 8 8 8 8 8 7 7 8 8 7 7 7 7 7 7 7 8
10 10 10 10 10 10 9 9 9 9 9 9 9 9 9 9 8 8 8 8 8 8 8 8 8 7 7 7 7 7 7 7 7 7 7 7 7 7
10 10 10 10 9 9 9 9 9 9 9 8 8 8 8 8 8 8 8 8 7 7 7 7 7 7 7 7 7 7 7 7 7 7 7 7 7 7
10 9 9 9 9 9 9 8 8 8 8 8 8 8 8 7 7 7 7 7 7 7 7 7 7 7 7 7 6 6 7 7 7 7 7 7 7 7
9 9 9 9 9 8 8 8 8 8 8 8 8 7 7 7 7 7 7 7 7 7 7 7 7 7 6 6 6 6 6 6 6 7 7 7 6 7
Wind_Speed
4 4 3 3 3 3 3 3 3 2 3 2 1 1 1 1 1 1 1 1 1 1 2 2 2 2 2 2 1 1 1 1 1 1 1 2 2 3
3 4 3 3 3 3 3 3 3 3 3 2 2 2 1 1 1 1 1 1 1 1 1 1 2 2 2 2 2 2 2 2 3 2 2 1 1 1
4 4 4 4 3 3 3 3 3 3 4 3 2 1 1 1 1 0 0 1 0 1 1 1 2 2 2 2 3 3 3 3 3 3 3 2 2 2
5 5 5 4 4 3 3 3 3 3 3 4 2 2 2 2 1 1 0 0 1 1 1 2 2 2 3 3 3 3 3 3 3 3 3 3 2 2
6 6 5 5 4 3 3 3 3 3 3 3 2 1 1 1 1 1 1 1 1 1 1 2 2 2 2 3 3 3 3 4 4 3 3 3 2 2
5 5 5 5 5 5 4 4 4 3 3 3 2 1 1 1 1 1 1 1 1 1 1 1 2 2 2 2 3 4 4 4 4 4 3 3 2 2
4 4 5 5 6 5 4 4 5 4 3 3 3 2 2 2 2 2 2 2 2 1 1 1 1 1 1 2 3 4 4 5 5 4 4 3 2 1
4 4 3 4 5 6 6 6 6 5 5 4 3 4 4 4 3 2 2 1 2 1 2 2 1 2 2 3 4 4 5 5 5 5 4 3 2 1
5 4 3 3 4 4 5 6 6 6 7 5 5 5 5 5 4 4 3 3 3 1 2 2 1 2 2 3 5 6 6 6 6 5 4 3 3 2
5 5 5 4 4 5 4 4 4 4 5 5 5 5 4 4 5 5 4 3 1 1 2 2 2 2 2 3 4 5 6 7 6 6 5 4 4 4
4 5 6 6 6 6 5 4 3 3 3 4 4 4 4 4 5 3 3 2 2 1 2 2 1 1 2 2 3 4 6 6 6 6 6 5 5 4
3 4 5 5 5 7 6 5 5 4 2 2 2 1 1 2 5 5 4 4 2 2 2 2 1 1 1 1 1 2 4 5 6 6 6 6 5 4
4 3 3 5 5 5 6 5 6 4 3 3 2 1 0 1 2 3 3 4 3 2 3 3 2 2 2 1 2 2 3 3 4 5 6 7 7 6
4 3 3 4 5 5 4 4 5 4 3 2 2 1 1 2 2 3 4 4 4 4 4 5 3 3 3 2 2 2 2 3 4 4 4 5 7 9
3 4 4 4 4 3 3 4 4 3 3 3 3 3 3 3 2 2 2 3 2 2 3 4 3 3 3 3 3 2 2 2 4 4 4 4 4 5
2 2 3 3 2 1 1 2 2 3 3 3 3 2 1 1 1 1 1 2 1 1 2 3 4 4 3 4 4 4 3 3 2 3 3 4 5 7
3 1 1 1 1 1 1 1 1 2 3 3 3 2 2 2 2 1 1 1 2 2 2 1 2 3 4 4 4 4 4 3 3 3 3 4 5 6
4 2 2 2 2 3 3 2 2 3 3 3 3 3 2 2 2 2 1 2 3 3 3 2 1 1 1 3 6 5 4 4 4 4 4 5 6 6
3 3 3 3 3 3 3 3 3 3 3 3 3 3 3 3 2 2 2 2 2 3 2 2 2 2 3 4 3 7 5 4 4 4 4 5 6 6
3 3 4 3 3 3 3 3 3 3 3 3 3 3 3 3 3 2 2 2 2 2 2 1 2 3 4 5 4 4 7 6 5 5 5 5 6 6
3 3 4 3 3 3 4 3 3 3 3 3 3 3 3 3 3 3 3 3 3 2 3 3 4 4 3 2 3 4 3 7 8 5 5 4 5 4
3 3 3 3 3 3 4 4 4 3 3 3 3 3 3 3 3 3 3 3 3 3 4 3 1 1 2 3 4 5 4 4 6 8 9 8 5 5
3 3 3 3 3 3 3 4 5 4 4 4 4 3 3 3 3 3 3 3 3 3 2 2 1 1 2 3 4 4 5 4 3 3 5 7 11 13
Wind_Direction
207 200 201 207 196 198 190 186 187 227 258 259 261 282 261 252 269 247 244 247 229 231 230 225 210 193 191 183 166 166 133 134 153 266 273 272 267 259
202 196 206 208 199 197 195 196 198 204 236 244 243 283 281 266 272 231 227 216 220 222 221 200 182 179 172 154 146 134 110 100 106 102 96 77 312 286
205 202 212 202 194 197 190 191 200 197 225 254 244 261 240 264 316 299 225 202 271 239 213 185 167 162 159 154 145 133 117 110 110 106 100 86 71 57
203 198 210 200 197 197 193 199 204 204 208 238 247 238 246 253 265 265 271 258 279 302 239 213 190 173 168 165 158 148 137 128 116 104 97 92 83 73
200 199 204 195 201 202 200 206 208 205 206 217 241 239 264 264 286 291 288 308 267 286 268 241 204 180 169 168 166 163 163 153 137 122 107 95 94 90
198 197 199 197 202 201 205 209 202 198 198 209 233 239 251 261 236 261 279 284 269 280 274 242 212 191 198 199 192 187 182 171 161 150 138 121 112 111
201 199 199 198 200 201 202 203 197 199 199 209 223 230 235 231 237 238 252 267 262 252 250 259 234 230 235 234 218 206 193 182 176 173 165 158 151 140
204 206 204 208 212 212 209 202 196 198 203 209 222 231 238 234 225 221 227 241 251 228 226 251 219 237 243 231 224 206 199 196 191 186 181 177 173 173
212 211 211 207 214 223 215 209 210 209 201 202 217 230 234 224 213 214 214 223 243 233 210 239 228 242 245 242 233 216 207 203 201 201 202 205 207 208
215 215 213 216 214 207 201 203 212 217 211 210 220 233 235 224 211 211 212 218 260 213 198 223 233 247 256 244 239 223 216 213 212 212 212 215 219 224
221 219 216 220 217 197 192 201 216 231 212 204 218 233 229 209 188 174 174 193 242 240 200 206 227 253 256 249 239 231 225 222 223 222 218 217 219 220
216 224 220 216 212 194 197 198 212 226 215 203 218 242 220 187 176 190 194 197 208 224 193 193 202 205 248 250 241 237 230 232 230 226 223 220 212 207
213 223 225 201 195 192 196 207 212 204 194 191 200 208 188 194 198 202 203 200 204 222 191 183 197 201 219 252 264 238 223 227 226 229 232 229 223 212
213 219 215 190 183 183 193 207 192 176 174 175 195 221 223 230 237 225 216 216 219 220 198 187 198 200 207 234 256 248 239 234 223 227 232 234 233 229
203 198 188 174 172 178 186 181 173 178 180 188 211 226 234 236 223 218 223 229 233 227 192 195 200 199 208 226 238 243 253 247 225 230 234 233 229 221
185 157 140 137 145 175 183 181 183 186 192 204 217 221 210 200 201 202 213 215 221 260 252 218 210 202 217 229 230 240 241 237 230 233 235 241 236 227
167 155 150 140 162 197 224 212 195 194 206 213 208 205 198 201 218 218 208 204 218 242 262 263 242 227 231 225 232 241 247 251 247 233 233 248 247 235
155 175 202 202 207 217 222 225 218 220 222 215 210 207 207 212 218 217 211 214 229 241 250 253 228 242 261 253 224 237 249 255 254 236 231 245 258 250
163 195 214 219 223 225 226 226 227 228 218 210 205 208 210 212 214 215 212 223 241 249 254 241 222 222 255 274 258 213 236 254 250 243 238 239 254 259
198 211 221 228 230 225 222 224 226 219 214 212 212 211 206 203 207 213 212 216 235 249 256 246 230 227 238 259 271 263 227 236 242 248 250 249 256 264
219 229 230 228 233 229 223 218 213 209 209 208 211 211 213 207 206 211 215 213 219 238 252 260 259 246 243 239 258 267 257 232 232 241 243 248 261 263
224 230 236 233 231 228 220 212 208 210 210 210 214 212 210 214 214 214 216 220 229 241 256 275 289 219 216 237 254 264 272 278 251 246 237 230 242 251
234 236 237 237 230 222 219 211 207 212 211 209 209 211 208 214 219 216 220 227 236 247 261 278 290 255 250 249 259 269 275 279 277 272 266 256 252 257
Height
1542 1542 1543 1544 1544 1545 1545 1545 1546 1545 1544 1544 1544 1544 1543 1543 1542 1542 1541 1540 1540 1539 1539 1539 1539 1538 1538 1538 1538 1538 1538 1538 1538 1538 1538 1538 1538 1538
1540 1540 1540 1541 1542 1542 1542 1543 1543 1543 1542 1541 1542 1542 1541 1541 1540 1539 1538 1538 1537 1537 1536 1536 1536 1535 1535 1535 1535 1535 1535 1535 1535 1535 1535 1535 1535 1535
1537 1537 1538 1538 1539 1539 1539 1539 1540 1540 1539 1539 1539 1539 1539 1538 1537 1537 1536 1535 1534 1534 1533 1533 1533 1533 1533 1532 1532 1532 1532 1532 1532 1532 1532 1532 1532 1532
1534 1534 1535 1535 1536 1536 1537 1537 1537 1537 1536 1535 1536 1536 1536 1535 1534 1534 1533 1532 1532 1531 1531 1530 1530 1530 1530 1530 1530 1530 1530 1530 1530 1529 1529 1529 1529 1529
1531 1531 1532 1532 1533 1533 1533 1534 1533 1533 1533 1533 1532 1533 1532 1532 1531 1531 1530 1529 1529 1528 1528 1528 1528 1528 1528 1527 1527 1527 1527 1527 1527 1527 1527 1527 1527 1527
1527 1528 1529 1529 1529 1530 1530 1530 1530 1530 1529 1529 1529 1529 1529 1528 1528 1528 1527 1526 1526 1525 1525 1525 1525 1525 1525 1525 1525 1525 1525 1525 1524 1524 1524 1524 1524 1524
1524 1524 1525 1525 1526 1526 1526 1526 1526 1526 1526 1525 1525 1525 1525 1525 1524 1524 1524 1523 1523 1523 1522 1522 1522 1522 1522 1522 1522 1522 1522 1522 1522 1522 1522 1522 1522 1522
1520 1521 1521 1522 1522 1522 1522 1522 1523 1523 1522 1522 1522 1521 1521 1521 1521 1521 1520 1520 1519 1520 1519 1519 1519 1519 1520 1520 1520 1520 1519 1519 1519 1519 1519 1520 1520 1520
1517 1517 1517 1518 1518 1518 1519 1519 1519 1518 1519 1519 1518 1518 1518 1517 1517 1516 1516 1516 1516 1517 1517 1516 1516 1516 1517 1517 1517 1517 1517 1517 1517 1517 1517 1517 1517 1517
1513 1513 1514 1514 1515 1515 1515 1515 1515 1515 1514 1514 1514 1514 1514 1514 1513 1513 1513 1513 1513 1513 1513 1513 1513 1513 1513 1514 1514 1515 1514 1514 1514 1514 1514 1514 1514 1514
1509 1509 1510 1510 1511 1511 1511 1510 1510 1510 1510 1510 1510 1510 1510 1510 1510 1510 1509 1509 1509 1509 1510 1510 1510 1510 1510 1510 1511 1511 1511 1511 1511 1511 1511 1511 1511 1511
1503 1504 1505 1506 1506 1506 1507 1506 1506 1507 1507 1506 1507 1506 1506 1506 1506 1506 1506 1506 1506 1506 1506 1507 1507 1507 1507 1507 1507 1508 1508 1508 1508 1508 1508 1508 1508 1508
1499 1500 1501 1501 1502 1502 1502 1502 1502 1503 1503 1503 1503 1503 1502 1502 1502 1502 1502 1502 1503 1503 1503 1503 1504 1504 1504 1504 1504 1504 1505 1505 1505 1505 1505 1505 1505 1505
1495 1496 1496 1497 1497 1497 1498 1498 1498 1499 1499 1499 1499 1499 1499 1499 1499 1499 1499 1499 1499 1500 1500 1500 1500 1501 1501 1500 1500 1501 1501 1501 1501 1501 1501 1501 1501 1501
1491 1491 1492 1492 1493 1493 1493 1494 1494 1495 1495 1495 1495 1495 1495 1495 1495 1495 1495 1496 1496 1496 1496 1496 1497 1497 1497 1497 1496 1497 1497 1497 1497 1497 1497 1497 1497 1497
1487 1487 1488 1488 1489 1489 1489 1489 1490 1490 1490 1490 1491 1491 1491 1491 1491 1492 1492 1492 1492 1492 1493 1493 1493 1493 1493 1493 1493 1493 1493 1493 1493 1493 1493 1493 1493 1493
1483 1483 1484 1484 1484 1485 1485 1485 1485 1486 1486 1486 1487 1487 1487 1488 1488 1489 1489 1489 1488 1488 1488 1489 1489 1489 1489 1489 1489 1489 1489 1489 1489 1489 1489 1489 1489 1489
1479 1479 1479 1479 1480 1480 1481 1481 1481 1481 1482 1482 1482 1483 1483 1484 1485 1485 1485 1485 1485 1485 1485 1485 1485 1485 1486 1485 1486 1485 1485 1485 1485 1485 1485 1484 1484 1484
1474 1474 1475 1475 1475 1476 1476 1476 1476 1477 1478 1478 1478 1479 1480 1480 1481 1481 1481 1481 1481 1481 1481 1482 1481 1481 1481 1480 1480 1481 1481 1481 1481 1481 1480 1480 1479 1479
1469 1470 1470 1471 1471 1471 1471 1472 1472 1473 1474 1474 1474 1475 1475 1476 1476 1477 1478 1478 1478 1478 1478 1478 1478 1477 1477 1477 1477 1477 1477 1477 1476 1476 1476 1475 1475 1475
1465 1466 1466 1466 1466 1467 1467 1468 1468 1469 1469 1470 1471 1471 1472 1473 1472 1473 1474 1474 1475 1475 1474 1474 1474 1474 1474 1474 1473 1472 1473 1473 1472 1472 1471 1471 1470 1469
1462 1462 1462 1462 1462 1462 1463 1463 1464 1464 1465 1466 1467 1468 1469 1469 1469 1470 1471 1471 1471 1471 1471 1471 1471 1471 1470 1470 1469 1468 1468 1468 1467 1467 1466 1466 1465 1464
1459 1459 1458 1458 1458 1458 1458 1459 1460 1460 1461 1462 1463 1464 1465 1465 1466 1467 1467 1468 1468 1468 1468 1467 1467 1467 1466 1466 1465 1465 1464 1463 1462 1461 1461 1461 1461 1460